Regional Weather Roundup
Issued by NWS

Current Version | Previous Version | Text Only | Print | Product List | Glossary On
Versions: 1 2 3 4 5 6 7 8 9 10 11 12 13 14 15 16 17 18 19 20 21 22 23 24 25 26 27 28 29 30 31 32 33 34 35 36 37 38 39 40 41 42 43 44 45 46 47 48 49 50
000
ASUS44 KFWD 282303
RWRTX
NORTH TEXAS HOURLY WEATHER ROUNDUP
NATIONAL WEATHER SERVICE FORT WORTH TX
500 PM CST FRI NOV 28 2014

NOTE: "FAIR" INDICATES FEW OR NO CLOUDS BELOW 12,000 FEET WITH NO
SIGNIFICANT WEATHER AND/OR OBSTRUCTIONS TO VISIBILITY.

TXZ118-119-290000-
DALLAS/FORT WORTH METROPLEX

CITY           SKY/WX    TMP DP  RH WIND       PRES   REMARKS
DFW AIRPORT    PTCLDY    67  49  52 S20       30.01F
DALLAS LOVE    PTCLDY    69  50  50 S13G23    30.03F
FTW MEACHAM    CLEAR     70  49  47 S16G24    30.01S
DAL-EXECUTIVE  CLEAR     69  49  48 S13G21    30.03S
FTW-ALLIANCE   PTCLDY    67  48  50 S12G18    30.00F
FTW-SPINKS     CLEAR     70  46  43 S14G25    30.04F
ARLINGTON      CLEAR     71  47  42 S14       30.03S
ADDISON        CLEAR     68  48  49 S14G21    30.03F
MESQUITE       CLEAR     66  48  52 S17G23    30.05F
LANCASTER      CLEAR     67  48  50 S16       30.06F
$$

TXZ091>094-102>105-117-120-121-131>134-290000-
NORTH CENTRAL TEXAS

CITY           SKY/WX    TMP DP  RH WIND       PRES   REMARKS
SHRMAN/DENISON CLEAR     65  52  61 S14G25    30.01F
BRIDGEPORT     CLEAR     70  49  47 S12G18    30.00S
DECATUR        CLEAR     68  46  44 S13G18    30.00S
DENTON         CLEAR     68  48  48 S18       30.00F
MCKINNEY       LGT RAIN  66  49  54 S16G26    30.02F
GREENVILLE     CLEAR     66  48  52 S15G22    30.05S
ROCKWALL       CLEAR     67  49  54 S15G24    30.04S
TERRELL        CLEAR     69  50  50 S14       30.06F
WAXAHACHIE     CLEAR     67  51  55 S12G26    30.06S
CLEBURNE       CLEAR     70  46  43 S13G20    30.05S
GRANBURY       CLEAR     71  48  44 S12       30.03F
$$

TXZ083>090-098>101-113>116-127>130-139>142-154-155-290000-
WESTERN NORTH TEXAS

CITY           SKY/WX    TMP DP  RH WIND       PRES   REMARKS
WICHITA FALLS  CLEAR     68  44  42 S15       29.92S
WF-KICKAPOO    CLEAR     69  42  37 S12G17    29.94F
VERNON         CLEAR     72  36  26 S16       29.90S
ABILENE        CLEAR     70  38  31 S18       30.01S
ABILENE-DYESS  CLEAR     71  41  34 SW16      29.99F
MINERAL WELLS  CLEAR     69  46  43 S12       29.99F
STEPHENVILLE   CLEAR     69  45  41 S10G20    30.06S
COMANCHE       CLEAR     70  47  43 S10       30.04S
COLEMAN        CLEAR     70  45  40 SW8       30.04S
BRADY          CLEAR     68  37  32 S15       30.07S
$$

TXZ143>147-156>162-174-175-290000-
CENTRAL TEXAS

CITY           SKY/WX    TMP DP  RH WIND       PRES   REMARKS
WACO           CLEAR     68  49  50 S16       30.08S
WACO-TSTC      CLEAR     68  50  52 S14G21    30.09S
WACO-MCGREGOR  CLEAR     70  46  43 S13G23    30.09S
HILLSBORO      CLEAR     69  47  45 S16G22    30.06F
CORSICANA      CLEAR     69  50  50 S15       30.09F
MEXIA          CLEAR     68  52  56 S13       30.09S
HEARNE         CLEAR     69  52  54 S10       30.13S
CAMERON        CLEAR     70  50  49 S9G16     30.11S
TEMPLE         CLEAR     68  46  45 S18       30.08F
KILLEEN        CLEAR     67  46  45 S13       30.09F
KILLEEN-SKYLRK CLEAR     70  46  43 S13G20    30.08R
FORT HOOD      CLEAR     71  45  39 S10       30.08F
GATESVILLE     CLEAR     70  46  43 S7        30.09F
HAMILTON       CLEAR     69  45  42 S16G23    30.07S
LAMPASAS       CLEAR     71  48  45 S9        30.08F
$$

TXZ095>097-106>112-122>126-135>138-148>153-164>167-290000-
EAST TEXAS

CITY           SKY/WX    TMP DP  RH WIND       PRES   REMARKS
PARIS          CLEAR     64  48  55 S16G25    30.05F
SULPHUR SPRNGS CLEAR     67  49  52 S13       30.08F
MOUNT PLEASANT CLEAR    N/A N/A N/A S12G17    30.10S
MINEOLA        CLEAR     66  48  52 S7        30.08F
TYLER          CLEAR     66  50  56 S13       30.09F
LONGVIEW       CLEAR     64  48  56 S8        30.11F
MARSHALL       CLEAR     67  50  55 S6        30.14S
ATHENS         CLEAR     64  50  59 S12G20    30.09S
PALESTINE      PTCLDY    67  52  57 S10       30.12F
JACKSONVILLE   MOCLDY    65  51  61 S9        30.14F
HENDERSON      CLEAR     64  49  57 S7        30.13F
NACOGDOCHES    MOCLDY    64  48  55 S9        30.16S
LUFKIN         MOCLDY    66  52  60 S8        30.16F
$$

SUPPLEMENTAL OBSERVATIONS (CENTRAL)

CITY           SKY/WX    TMP DP  RH WIND       PRES   REMARKS
$$

SUPPLEMENTAL OBSERVATIONS (WEST)

CITY           SKY/WX    TMP DP  RH WIND       PRES   REMARKS
$$

SUPPLEMENTAL OBSERVATIONS (EAST)

CITY           SKY/WX    TMP DP  RH WIND       PRES   REMARKS
$$

SUPPLEMENTAL OBSERVATIONS ARE A COLLECTION OF AUTOMATED INSTRUMENTS
THAT ARE MAINTAINED BY A VARIETY OF FEDERAL AND STATE AGENCIES.
CERTAIN ELEMENTS...SUCH AS HUMIDITY VALUES AND SUSTAINED WIND
SPEEDS...MAY BE APPROXIMATED.




USA.gov is the U.S. government's official web portal to all federal, state and local government web resources and services.